{"data":{"norad_id":55918,"epoch":"2026-09-20T03:42:35.804448Z","epoch_age_seconds":132914,"freshness":"FRESH","line1":"1 55918U 23037E   26263.15458107  .00000397  00000+0  41074-4 0  9991","line2":"2 55918  70.0001 174.2429 0002524 270.9653  89.1217 14.98329660192617","mean_motion":14.9832966,"eccentricity":0.0002524,"inclination_deg":70.0001,"raan_deg":174.2429,"arg_perigee_deg":270.9653,"mean_anomaly_deg":89.1217,"bstar":4.1074e-5,"rev_number":19261,"period_min":96.107020934232,"perigee_km":570.30271341551,"apogee_km":573.81117131762,"semimajor_km":6950.1939423666,"source":"CELESTRAK","updated_at":"2026-09-21T09:00:33.322790Z"}}